GRARBER Weather Reports


Display with metric or nautical units.
time (UTC)temp
F
wind
direction
speed
MPH
gust
MPH
rain 1hr
in
rain 24hr
in
rain mn
in
humidity
%
barometer
mb
20260905091623 46 240 17.0 0.0 0.00 0.00 0.00 99
20260905081656 46 260 18.0 0.0 0.00 0.00 0.00 99
20260905071957 46 280 18.0 28.0 0.00 0.00 0.00 93
20260905061656 46 300 18.0 26.0 0.00 0.00 0.00 93
20260905051656 45 300 18.0 26.0 0.00 0.00 0.00 99
20260905042058 43 330 24.0 0.0 0.00 0.00 0.00 99
20260905031656 48 330 24.0 36.0 0.00 0.00 0.00 93
20260905021656 52 320 16.0 26.0 0.00 0.00 0.00 93
20260905011956 54 320 17.0 25.0 0.00 0.00 0.00 99
20260905001712 61 280 25.0 38.0 0.00 0.00 0.00 77
20260904231712 61 270 32.0 45.0 0.00 0.00 0.00 72
20260904222056 63 270 35.0 45.0 0.00 0.00 0.00 67
20260904211713 63 260 30.0 43.0 0.00 0.00 0.00 67
20260904201713 63 270 24.0 36.0 0.00 0.00 0.00 67
20260904191955 64 250 26.0 35.0 0.00 0.00 0.00 63
20260904181656 64 240 28.0 0.0 0.00 0.00 0.00 63
20260904171712 66 230 28.0 38.0 0.00 0.00 0.00 55
20260904161956 66 220 26.0 35.0 0.00 0.00 0.00 59
20260904151713 66 220 21.0 31.0 0.00 0.00 0.00 59
20260904141655 66 230 25.0 35.0 0.00 0.00 0.00 59
20260904131912 63 210 22.0 33.0 0.00 0.00 0.00 72
20260904121656 61 220 26.0 40.0 0.00 0.00 0.00 77
20260904111656 59 230 26.0 39.0 0.00 0.00 0.00 82
20260904102113 57 230 22.0 30.0 0.00 0.00 0.00 87